Location: Newark
(44.6028°N, 124.0883°W)
Time: 05:18:14
(UTC+00:00)

N. Korean satellite - Pass Details

Date: 31 October 2020
Orbit: 453 x 504 km, 97.2° (Epoch: 30 November)

Event Time Altitude Azimuth Distance (km) Brightness Sun altitude
Rises 01:39:50 0° 195° (SSW) 2,536 10.6 -6.4°
Reaches altitude 10° 01:42:11 10° 209° (SSW) 1,652 9.9 -6.8°
Maximum altitude 01:45:06 24° 265° (W) 1,037 9.4 -7.3°
Drops below altitude 10° 01:48:00 10° 320° (NW) 1,640 9.6 -7.8°
Sets 01:50:20 0° 335° (NNW) 2,512 10.4 -8.2°
